Location: *
(51.4660°N, 0.3360°W)
Time: 04:47:09
(UTC+00:00)

SPOT 1/Viking Rocket - Pass Details

Date: 19 September 2019
Orbit: 777 x 795 km, 98.5° (Epoch: 17 October)

Event Time Altitude Azimuth Distance (km) Brightness Sun altitude
Exits shadow 21:17:27 80° 7° (N) 805 3.5 -27.6°
Drops below altitude 10° 21:22:22 10° 346° (NNW) 2,351 6.7 -28.1°
Sets 21:24:41 0° 346° (NNW) 3,282 7.7 -28.4°
